{"data":{"norad_id":66394,"epoch":"2026-09-20T12:25:48.936864Z","epoch_age_seconds":91566,"freshness":"FRESH","line1":"1 66394U 25257Q   26263.51792751  .00009448  00000+0  29043-3 0  9990","line2":"2 66394  53.1581  27.7351 0001694  95.1451 264.9745 15.34398568 49623","mean_motion":15.34398568,"eccentricity":0.0001694,"inclination_deg":53.1581,"raan_deg":27.7351,"arg_perigee_deg":95.1451,"mean_anomaly_deg":264.9745,"bstar":0.00029043,"rev_number":4962,"period_min":93.847845666133,"perigee_km":461.5486573585,"apogee_km":463.86633547389,"semimajor_km":6840.8444964162,"source":"CELESTRAK","updated_at":"2026-09-21T09:00:35.887930Z"}}